Weather History for Warroad, MN

Change the Weather History Date:

Thursday, February 28, 2013

  Actual Average Record
Temperature  
Mean Temperature 19 °F -  
Max Temperature 26 °F 25 °F 42 °F (1988)
Min Temperature 12 °F 4 °F -37 °F (1949)
Degree Days  
Heating Degree Days 46    
Moisture  
Dew Point 11 °F    
Average Humidity 71    
Maximum Humidity 85    
Minimum Humidity 59    
Precipitation  
Precipitation 0.00 in - - ()
Sea Level Pressure  
Sea Level Pressure 30.30 in    
Wind  
Wind Speed 10 mph (NE)    
Max Wind Speed 14 mph    
Max Gust Speed 18 mph    
Visibility 10 miles    
Events      
Averages and records for this station are not official NWS values.
T = Trace of Precipitation, MM = Missing Value Source: NWS Daily Summary

Daily Weather History Graph

Daily Weather History Graph

Search for Another Location

Airport:

Trip Planner

Search our weather history database for the weather conditions in past years. The results will help you decide how hot, cold, wet, or windy it might be!

Date:

Astronomy

Feb. 28, 2013 Rise Set
Actual Time 7:04 AM CST 6:03 PM CST
Civil Twilight 6:33 AM CST 6:35 PM CST
Nautical Twilight 5:56 AM CST 7:12 PM CST
Astronomical Twilight 5:19 AM CST 7:48 PM CST
Moon 9:55 PM CST (2/28) 7:55 AM CST (2/28)
Length of Visible Light 12h 02m
Length of Day
10h 58m
Waning Gibbous, 90% of the Moon is Illuminated
Feb 28
Waning Gibbous
Mar 4
Last Quarter
Mar 11
New
Mar 19
First Quarter
Mar 27
Full

Hourly Weather History & Observations

Time (CST) Temp. Windchill Dew Point Humidity Pressure Visibility Wind Dir Wind Speed Gust Speed Precip Events Conditions
12:14 AM 26.6 °F 16.8 °F 19.4 °F 74% 30.22 in 10.0 mi NNE 10.4 mph - N/A   Overcast
12:34 AM 26.6 °F 16.8 °F 19.4 °F 74% 30.22 in 10.0 mi NNE 10.4 mph - N/A   Overcast
12:54 AM 26.6 °F 16.2 °F 19.4 °F 74% 30.22 in 10.0 mi NNE 11.5 mph - N/A   Overcast
1:14 AM 26.6 °F 15.2 °F 19.4 °F 74% 30.23 in 10.0 mi NE 13.8 mph - N/A   Overcast
1:34 AM 24.8 °F 14.0 °F 19.4 °F 80% 30.23 in 10.0 mi NE 11.5 mph - N/A   Overcast
1:54 AM 24.8 °F 14.6 °F 19.4 °F 80% 30.23 in 10.0 mi NE 10.4 mph - N/A   Overcast
2:14 AM 24.8 °F 14.0 °F 19.4 °F 80% 30.24 in 10.0 mi NNE 11.5 mph - N/A   Overcast
2:34 AM 24.8 °F 13.4 °F 17.6 °F 74% 30.24 in 10.0 mi NE 12.7 mph 18.4 mph N/A   Overcast
2:54 AM 24.8 °F 14.0 °F 17.6 °F 74% 30.24 in 10.0 mi NE 11.5 mph - N/A   Overcast
3:14 AM 24.8 °F 15.3 °F 17.6 °F 74% 30.25 in 10.0 mi NE 9.2 mph - N/A   Overcast
3:54 AM 24.8 °F 14.6 °F 17.6 °F 74% 30.25 in 10.0 mi NNE 10.4 mph - N/A   Overcast
4:34 AM 21.2 °F 9.5 °F 15.8 °F 80% 30.26 in 10.0 mi NE 11.5 mph - N/A   Overcast
4:54 AM 21.2 °F 10.1 °F 15.8 °F 80% 30.27 in 10.0 mi NNE 10.4 mph - N/A   Mostly Cloudy
5:14 AM 19.4 °F 8.6 °F 12.2 °F 74% 30.27 in 10.0 mi NNE 9.2 mph - N/A   Mostly Cloudy
5:34 AM 17.6 °F 5.0 °F 12.2 °F 79% 30.28 in 10.0 mi NNE 11.5 mph - N/A   Clear
5:54 AM 17.6 °F 6.4 °F 10.4 °F 73% 30.29 in 10.0 mi NNE 9.2 mph - N/A   Clear
6:14 AM 15.8 °F 3.4 °F 10.4 °F 79% 30.29 in 10.0 mi NNE 10.4 mph - N/A   Clear
6:34 AM 15.8 °F 4.2 °F 10.4 °F 79% 30.30 in 10.0 mi NNE 9.2 mph - N/A   Clear
6:53 AM 14.0 °F 2.0 °F 8.6 °F 79% 30.30 in 10.0 mi NNE 9.2 mph - N/A   Clear
7:14 AM 14.0 °F 2.0 °F 8.6 °F 79% 30.31 in 10.0 mi NNE 9.2 mph - N/A   Clear
7:34 AM 12.2 °F -0.2 °F 8.6 °F 85% 30.31 in 10.0 mi NNE 9.2 mph - N/A   Clear
8:14 AM 14.0 °F 3.9 °F 8.6 °F 79% 30.31 in 10.0 mi NNE 6.9 mph - N/A   Clear
8:34 AM 14.0 °F 2.0 °F 8.6 °F 79% 30.31 in 10.0 mi NNE 9.2 mph - N/A   Clear
8:54 AM 14.0 °F 1.2 °F 8.6 °F 79% 30.31 in 10.0 mi NE 10.4 mph - N/A   Clear
9:14 AM 15.8 °F 3.4 °F 8.6 °F 73% 30.31 in 10.0 mi NE 10.4 mph - N/A   Clear
9:33 AM 15.8 °F 2.7 °F 8.6 °F 73% 30.32 in 10.0 mi NE 11.5 mph - N/A   Clear
9:54 AM 15.8 °F 2.7 °F 8.6 °F 73% 30.32 in 10.0 mi NNE 11.5 mph - N/A   Clear
10:14 AM 15.8 °F 2.7 °F 8.6 °F 73% 30.32 in 10.0 mi NE 11.5 mph - N/A   Clear
10:34 AM 15.8 °F 2.1 °F 8.6 °F 73% 30.33 in 10.0 mi NE 12.7 mph 17.3 mph N/A   Clear
10:54 AM 15.8 °F 3.4 °F 8.6 °F 73% 30.33 in 10.0 mi ENE 10.4 mph - N/A   Clear
11:14 AM 17.6 °F 6.4 °F 8.6 °F 68% 30.33 in 10.0 mi ENE 9.2 mph - N/A   Clear
11:34 AM 17.6 °F 6.4 °F 8.6 °F 68% 30.33 in 10.0 mi ENE 9.2 mph - N/A   Clear
11:54 AM 17.6 °F 9.3 °F 10.4 °F 73% 30.33 in 10.0 mi ENE 5.8 mph - N/A   Clear
12:14 PM 17.6 °F 8.2 °F 10.4 °F 73% 30.33 in 10.0 mi ENE 6.9 mph - N/A   Clear
12:34 PM 19.4 °F 11.5 °F 10.4 °F 68% 30.32 in 10.0 mi ENE 5.8 mph - N/A   Clear
12:54 PM 19.4 °F 10.4 °F 10.4 °F 68% 30.32 in 10.0 mi NE 6.9 mph - N/A   Clear
1:14 PM 21.2 °F 10.9 °F 10.4 °F 63% 30.32 in 10.0 mi NE 9.2 mph - N/A   Clear
1:34 PM 21.2 °F 10.1 °F 10.4 °F 63% 30.31 in 10.0 mi ENE 10.4 mph - N/A   Clear
1:54 PM 21.2 °F 10.9 °F 10.4 °F 63% 30.31 in 10.0 mi ENE 9.2 mph - N/A   Clear
2:14 PM 21.2 °F 10.9 °F 10.4 °F 63% 30.31 in 10.0 mi ENE 9.2 mph - N/A   Clear
2:34 PM 21.2 °F 10.9 °F 12.2 °F 68% 30.30 in 10.0 mi ENE 9.2 mph - N/A   Clear
2:54 PM 21.2 °F 10.1 °F 12.2 °F 68% 30.30 in 10.0 mi ENE 10.4 mph - N/A   Clear
3:34 PM 23.0 °F 13.1 °F 12.2 °F 63% 30.30 in 10.0 mi NE 9.2 mph - N/A   Clear
3:54 PM 24.8 °F 16.1 °F 12.2 °F 59% 30.30 in 10.0 mi NE 8.1 mph - N/A   Clear
4:14 PM 23.0 °F 13.9 °F 12.2 °F 63% 30.30 in 10.0 mi NE 8.1 mph - N/A   Clear
4:34 PM 23.0 °F 14.7 °F 12.2 °F 63% 30.30 in 10.0 mi NE 6.9 mph - N/A   Clear
4:54 PM 23.0 °F 14.7 °F 12.2 °F 63% 30.30 in 10.0 mi NNE 6.9 mph - N/A   Clear
5:14 PM 23.0 °F 14.7 °F 12.2 °F 63% 30.30 in 10.0 mi NNE 6.9 mph - N/A   Clear
5:34 PM 23.0 °F 13.9 °F 12.2 °F 63% 30.31 in 10.0 mi NNE 8.1 mph - N/A   Clear
5:54 PM 23.0 °F 15.8 °F 12.2 °F 63% 30.31 in 10.0 mi NNE 5.8 mph - N/A   Clear
6:14 PM 23.0 °F 13.9 °F 10.4 °F 59% 30.32 in 10.0 mi NNE 8.1 mph - N/A   Clear
6:34 PM 21.2 °F 12.6 °F 10.4 °F 63% 30.32 in 10.0 mi North 6.9 mph - N/A   Clear
6:54 PM 21.2 °F 10.9 °F 10.4 °F 63% 30.32 in 10.0 mi NNE 9.2 mph - N/A   Clear
7:14 PM 21.2 °F 11.7 °F 10.4 °F 63% 30.32 in 10.0 mi NNE 8.1 mph - N/A   Clear
7:34 PM 19.4 °F 10.4 °F 10.4 °F 68% 30.32 in 10.0 mi NE 6.9 mph - N/A   Clear
7:54 PM 19.4 °F 9.5 °F 10.4 °F 68% 30.33 in 10.0 mi ENE 8.1 mph - N/A   Clear
8:13 PM 14.0 °F 5.1 °F 6.8 °F 73% 30.33 in 10.0 mi ENE 5.8 mph - N/A   Clear
8:34 PM 14.0 °F 2.9 °F 6.8 °F 73% 30.33 in 10.0 mi ENE 8.1 mph - N/A   Clear
8:54 PM 15.8 °F 4.2 °F 8.6 °F 73% 30.33 in 10.0 mi ENE 9.2 mph - N/A   Clear
9:14 PM 15.8 °F 2.7 °F 8.6 °F 73% 30.33 in 10.0 mi ENE 11.5 mph - N/A   Clear
9:34 PM 15.8 °F 2.7 °F 6.8 °F 68% 30.34 in 10.0 mi ENE 11.5 mph - N/A   Clear
10:13 PM 14.0 °F 1.2 °F 6.8 °F 73% 30.34 in 10.0 mi ENE 10.4 mph - N/A   Clear
10:53 PM 14.0 °F 2.9 °F 6.8 °F 73% 30.35 in 10.0 mi ENE 8.1 mph - N/A   Clear
11:34 PM 15.8 °F 2.7 °F 6.8 °F 68% 30.35 in 10.0 mi ENE 11.5 mph - N/A   Clear
11:53 PM 14.0 °F 0.5 °F 6.8 °F 73% 30.36 in 10.0 mi ENE 11.5 mph - N/A   Clear